Powrót do katalogu

STARLINK-5496

AktywnyŁącznośćVLEO
NORAD 56886·PAYLOAD·🇺🇸 United States

Wystrzelony Jun 12, 2023 z Cape Canaveral Space Force Station

Loading…

Następne Przeloty (najbliższe 24 godziny)

TLE

ŚwieżeSource: CelesTrak SupGP

Epoka: Sep 15, 2026, 02:45 UTC

1 56886C 23083L   26258.11506944 -.00000542  00000+0 -19626-4 0  2580
2 56886  43.0011  95.0958 0001251 251.2559 133.3998 15.27586257    13

Śledź STARLINK-5496 w czasie rzeczywistym z AllMySat

Download on the App Store